| time (UTC) | temp F | wind direction | speed MPH | gust MPH | rain 1hr in | rain 24hr in | rain mn in | humidity % | barometer mb |
| 20260503191228 | 68 | 198 | 1.0 | 2.0 | 0.00 | 0.00 | 0.00 | 57 | 1018.3 |
| 20260503190725 | 68 | 196 | 0.0 | 1.0 | 0.00 | 0.00 | 0.00 | 57 | 1018.2 |
| 20260503190222 | 68 | 190 | 1.0 | 2.0 | 0.00 | 0.00 | 0.00 | 57 | 1018.3 |
| 20260503185719 | 68 | 197 | 1.0 | 2.0 | 0.00 | 0.00 | 0.00 | 57 | 1018.6 |
| 20260503185214 | 67 | 196 | 1.0 | 1.0 | 0.00 | 0.00 | 0.00 | 58 | 1018.5 |
| 20260503184709 | 67 | 195 | 0.0 | 1.0 | 0.00 | 0.00 | 0.00 | 58 | 1018.5 |
| 20260503184206 | 67 | 208 | 2.0 | 3.0 | 0.00 | 0.00 | 0.00 | 57 | 1018.4 |
| 20260503183702 | 68 | 187 | 1.0 | 1.0 | 0.00 | 0.00 | 0.00 | 57 | 1018.5 |
| 20260503183200 | 67 | 197 | 0.0 | 0.0 | 0.00 | 0.00 | 0.00 | 57 | 1018.6 |
| 20260503182658 | 67 | 195 | 0.0 | 1.0 | 0.00 | 0.00 | 0.00 | 57 | 1018.8 |
| 20260503182156 | 67 | 203 | 1.0 | 1.0 | 0.00 | 0.00 | 0.00 | 57 | 1018.8 |
| 20260503181652 | 68 | 203 | 1.0 | 1.0 | 0.00 | 0.00 | 0.00 | 57 | 1018.8 |
| 20260503181149 | 67 | 198 | 0.0 | 0.0 | 0.00 | 0.00 | 0.00 | 58 | 1018.7 |
| 20260503180646 | 67 | 194 | 1.0 | 1.0 | 0.00 | 0.00 | 0.00 | 58 | 1018.8 |
| 20260503180144 | 67 | 195 | 1.0 | 1.0 | 0.00 | 0.00 | 0.00 | 58 | 1018.9 |
| 20260503175641 | 67 | 196 | 1.0 | 1.0 | 0.00 | 0.00 | 0.00 | 58 | 1019.0 |
| 20260503175138 | 68 | 201 | 1.0 | 2.0 | 0.00 | 0.00 | 0.00 | 55 | 1018.9 |
| 20260503174634 | 66 | 197 | 0.0 | 1.0 | 0.00 | 0.00 | 0.00 | 59 | 1018.8 |
| 20260503174132 | 66 | 203 | 3.0 | 3.0 | 0.00 | 0.00 | 0.00 | 61 | 1018.8 |
| 20260503173626 | 66 | 204 | 2.0 | 2.0 | 0.00 | 0.00 | 0.00 | 58 | 1018.9 |
| 20260503173123 | 65 | 200 | 0.0 | 0.0 | 0.00 | 0.00 | 0.00 | 59 | 1018.9 |
| 20260503172620 | 65 | 202 | 1.0 | 1.0 | 0.00 | 0.00 | 0.00 | 62 | 1018.9 |
| 20260503172118 | 66 | 201 | 2.0 | 2.0 | 0.00 | 0.00 | 0.00 | 62 | 1019.1 |
| 20260503171614 | 67 | 200 | 0.0 | 1.0 | 0.00 | 0.00 | 0.00 | 62 | 1019.2 |
| 20260503171111 | 68 | 203 | 1.0 | 2.0 | 0.00 | 0.00 | 0.00 | 59 | 1019.0 |
| 20260503170608 | 68 | 202 | 0.0 | 0.0 | 0.00 | 0.00 | 0.00 | 60 | 1019.1 |
| 20260503170105 | 68 | 198 | 1.0 | 1.0 | 0.00 | 0.00 | 0.00 | 60 | 1019.0 |
| 20260503151000 | 63 | 178 | 2.0 | 2.0 | 0.00 | 0.00 | 0.00 | 60 | 1019.7 |
| 20260503150456 | 63 | 112 | 1.0 | 2.0 | 0.00 | 0.00 | 0.00 | 64 | 1019.4 |
| 20260503131350 | 57 | 126 | 0.0 | 0.0 | 0.00 | 0.00 | 0.00 | 95 | 1018.8 |
| 20260503130847 | 57 | 220 | 1.0 | 1.0 | 0.00 | 0.00 | 0.00 | 98 | 1018.9 |
| 20260503130344 | 56 | 172 | 0.0 | 0.0 | 0.00 | 0.00 | 0.00 | 99 | 1019.0 |
| 20260503110738 | 49 | 163 | 0.0 | 0.0 | 0.00 | 0.00 | 0.00 | 99 | 1017.7 |
| 20260503110235 | 49 | 163 | 0.0 | 0.0 | 0.00 | 0.00 | 0.00 | 99 | 1017.9 |
| 20260503100201 | 49 | 163 | 0.0 | 0.0 | 0.00 | 0.00 | 0.00 | 99 | 1017.0 |
| 20260503090121 | 49 | 167 | 0.0 | 0.0 | 0.00 | 0.00 | 0.00 | 99 | 1016.2 |
| 20260503081556 | 49 | 172 | 0.0 | 0.0 | 0.00 | 0.00 | 0.00 | 99 | 1016.1 |
| 20260503081054 | 49 | 172 | 0.0 | 0.0 | 0.00 | 0.00 | 0.00 | 99 | 1016.0 |
| 20260503080549 | 49 | 172 | 0.0 | 0.0 | 0.00 | 0.00 | 0.00 | 99 | 1016.1 |
| 20260503072523 | 51 | 172 | 0.0 | 0.0 | 0.00 | 0.00 | 0.00 | 99 | 1015.4 |
| 20260503072020 | 51 | 172 | 0.0 | 0.0 | 0.00 | 0.00 | 0.00 | 99 | 1015.4 |
| 20260503071517 | 51 | 172 | 0.0 | 0.0 | 0.00 | 0.00 | 0.00 | 99 | 1015.5 |
| 20260503071014 | 51 | 172 | 0.0 | 0.0 | 0.00 | 0.00 | 0.00 | 99 | 1015.7 |
| 20260503070511 | 51 | 172 | 0.0 | 0.0 | 0.00 | 0.00 | 0.00 | 99 | 1015.6 |
| 20260503054929 | 52 | 159 | 0.0 | 0.0 | 0.00 | 0.00 | 0.00 | 99 | 1014.9 |
| 20260503054425 | 52 | 158 | 0.0 | 0.0 | 0.00 | 0.00 | 0.00 | 99 | 1015.1 |
| 20260503053923 | 52 | 170 | 0.0 | 0.0 | 0.00 | 0.00 | 0.00 | 99 | 1015.1 |
| 20260503053420 | 53 | 167 | 1.0 | 1.0 | 0.00 | 0.00 | 0.00 | 99 | 1015.3 |
| 20260503052916 | 53 | 93 | 1.0 | 1.0 | 0.00 | 0.00 | 0.00 | 99 | 1015.2 |
| 20260503052414 | 53 | 153 | 0.0 | 1.0 | 0.00 | 0.00 | 0.00 | 99 | 1015.0 |
| 20260503051910 | 53 | 139 | 1.0 | 1.0 | 0.00 | 0.00 | 0.00 | 99 | 1015.4 |
| 20260503051406 | 53 | 66 | 2.0 | 2.0 | 0.00 | 0.00 | 0.00 | 99 | 1015.0 |
| 20260503050904 | 53 | 169 | 1.0 | 1.0 | 0.00 | 0.00 | 0.00 | 99 | 1015.2 |
| 20260503050359 | 53 | 117 | 0.0 | 1.0 | 0.00 | 0.00 | 0.00 | 99 | 1015.0 |
| 20260503045857 | 53 | 161 | 0.0 | 0.0 | 0.00 | 0.00 | 0.00 | 99 | 1015.1 |
| 20260503045354 | 53 | 160 | 0.0 | 0.0 | 0.00 | 0.00 | 0.00 | 99 | 1015.0 |
| 20260503044851 | 53 | 124 | 1.0 | 1.0 | 0.00 | 0.00 | 0.00 | 99 | 1014.9 |
| 20260503044348 | 53 | 93 | 1.0 | 1.0 | 0.00 | 0.00 | 0.00 | 99 | 1014.6 |
| 20260503043845 | 53 | 155 | 0.0 | 1.0 | 0.00 | 0.00 | 0.00 | 99 | 1014.6 |
| 20260503043342 | 54 | 158 | 0.0 | 0.0 | 0.00 | 0.00 | 0.00 | 99 | 1014.8 |
| 20260503042838 | 54 | 326 | 1.0 | 2.0 | 0.00 | 0.00 | 0.00 | 99 | 1014.4 |
| 20260503042335 | 54 | 160 | 0.0 | 0.0 | 0.00 | 0.00 | 0.00 | 99 | 1014.8 |
| 20260503041831 | 54 | 159 | 0.0 | 0.0 | 0.00 | 0.00 | 0.00 | 99 | 1014.8 |
| 20260503041328 | 54 | 137 | 1.0 | 1.0 | 0.00 | 0.00 | 0.00 | 99 | 1014.7 |
| 20260503040826 | 54 | 175 | 0.0 | 0.0 | 0.00 | 0.00 | 0.00 | 99 | 1014.4 |
| 20260503040324 | 54 | 175 | 0.0 | 0.0 | 0.00 | 0.00 | 0.00 | 99 | 1014.5 |
| 20260503035820 | 54 | 160 | 0.0 | 0.0 | 0.00 | 1.54 | 1.54 | 99 | 1014.2 |
| 20260503035317 | 54 | 160 | 0.0 | 0.0 | 0.00 | 1.54 | 1.54 | 99 | 1014.5 |
| 20260503034814 | 54 | 171 | 0.0 | 0.0 | 0.00 | 1.54 | 1.54 | 99 | 1014.4 |
| 20260503034312 | 55 | 161 | 0.0 | 0.0 | 0.00 | 1.54 | 1.54 | 99 | 1014.2 |
| 20260503033809 | 55 | 148 | 1.0 | 2.0 | 0.00 | 1.54 | 1.54 | 99 | 1014.1 |
| 20260503033306 | 55 | 160 | 0.0 | 0.0 | 0.00 | 1.54 | 1.54 | 99 | 1014.1 |
| 20260503032804 | 55 | 146 | 1.0 | 1.0 | 0.00 | 1.54 | 1.54 | 99 | 1013.8 |
| 20260503032304 | 55 | 147 | 0.0 | 0.0 | 0.00 | 1.54 | 1.54 | 99 | 1013.8 |
| 20260503031759 | 55 | 176 | 1.0 | 1.0 | 0.00 | 1.54 | 1.54 | 99 | 1014.0 |
| 20260503031258 | 55 | 155 | 0.0 | 0.0 | 0.00 | 1.54 | 1.54 | 99 | 1013.7 |
| 20260503030754 | 55 | 168 | 0.0 | 0.0 | 0.00 | 1.54 | 1.54 | 99 | 1013.9 |
| 20260503030250 | 55 | 157 | 0.0 | 0.0 | 0.00 | 1.54 | 1.54 | 99 | 1013.8 |
| 20260503025747 | 55 | 169 | 0.0 | 0.0 | 0.00 | 1.54 | 1.54 | 99 | 1013.7 |
| 20260503025244 | 55 | 167 | 0.0 | 0.0 | 0.00 | 1.54 | 1.54 | 99 | 1013.5 |
| 20260503024741 | 55 | 151 | 0.0 | 1.0 | 0.00 | 1.54 | 1.54 | 99 | 1013.5 |
| 20260503024238 | 55 | 172 | 1.0 | 2.0 | 0.00 | 1.54 | 1.54 | 99 | 1013.6 |
| 20260503023735 | 55 | 164 | 0.0 | 0.0 | 0.00 | 1.54 | 1.54 | 99 | 1013.6 |
| 20260503023232 | 55 | 125 | 0.0 | 0.0 | 0.00 | 1.54 | 1.54 | 99 | 1013.5 |
| 20260503022728 | 55 | 171 | 0.0 | 0.0 | 0.00 | 1.54 | 1.54 | 99 | 1013.2 |
| 20260503022228 | 55 | 172 | 0.0 | 1.0 | 0.00 | 1.54 | 1.54 | 99 | 1013.1 |
| 20260503021725 | 55 | 157 | 0.0 | 0.0 | 0.00 | 1.54 | 1.54 | 99 | 1013.1 |
| 20260503021221 | 55 | 166 | 1.0 | 1.0 | 0.00 | 1.54 | 1.54 | 99 | 1013.0 |
| 20260503020719 | 55 | 123 | 1.0 | 1.0 | 0.00 | 1.54 | 1.54 | 99 | 1013.0 |
| 20260503020216 | 55 | 163 | 0.0 | 0.0 | 0.00 | 1.54 | 1.54 | 99 | 1012.7 |
| 20260503015713 | 55 | 169 | 0.0 | 0.0 | 0.00 | 1.54 | 1.54 | 99 | 1012.9 |
| 20260503015210 | 55 | 201 | 0.0 | 0.0 | 0.00 | 1.54 | 1.54 | 99 | 1012.9 |
| 20260503014705 | 55 | 127 | 1.0 | 1.0 | 0.00 | 1.54 | 1.54 | 99 | 1012.5 |
| 20260503014204 | 55 | 140 | 0.0 | 0.0 | 0.00 | 1.54 | 1.54 | 99 | 1012.4 |
| 20260503013701 | 55 | 151 | 0.0 | 1.0 | 0.00 | 1.54 | 1.54 | 99 | 1012.3 |
| 20260503013158 | 55 | 107 | 1.0 | 2.0 | 0.00 | 1.54 | 1.54 | 99 | 1012.4 |
| 20260503012655 | 55 | 136 | 1.0 | 1.0 | 0.00 | 1.54 | 1.54 | 99 | 1012.4 |
| 20260503012152 | 55 | 161 | 0.0 | 0.0 | 0.00 | 1.54 | 1.54 | 99 | 1012.5 |
| 20260503011648 | 55 | 161 | 0.0 | 0.0 | 0.00 | 1.54 | 1.54 | 99 | 1012.5 |
| 20260503011146 | 55 | 167 | 0.0 | 1.0 | 0.00 | 1.54 | 1.54 | 99 | 1012.7 |
| 20260503010642 | 55 | 156 | 0.0 | 0.0 | 0.00 | 1.54 | 1.54 | 99 | 1012.5 |
| 20260503010139 | 55 | 164 | 0.0 | 0.0 | 0.00 | 1.54 | 1.54 | 99 | 1012.5 |
| 20260503005636 | 55 | 125 | 0.0 | 0.0 | 0.00 | 1.54 | 1.54 | 99 | 1012.3 |
| 20260503005134 | 55 | 165 | 0.0 | 0.0 | 0.00 | 1.54 | 1.54 | 99 | 1012.3 |
| 20260503004630 | 55 | 148 | 0.0 | 1.0 | 0.00 | 1.54 | 1.54 | 99 | 1012.3 |
| 20260503004128 | 55 | 148 | 0.0 | 1.0 | 0.00 | 1.54 | 1.54 | 99 | 1012.3 |
| 20260503003625 | 55 | 193 | 1.0 | 2.0 | 0.00 | 1.54 | 1.54 | 99 | 1012.2 |
| 20260503003122 | 55 | 166 | 0.0 | 1.0 | 0.00 | 1.54 | 1.54 | 99 | 1011.6 |
| 20260503002619 | 55 | 177 | 0.0 | 1.0 | 0.00 | 1.54 | 1.54 | 99 | 1012.0 |
| 20260503002115 | 55 | 158 | 1.0 | 1.0 | 0.00 | 0.92 | 0.92 | 99 | 1011.7 |
| 20260503001611 | 55 | 151 | 2.0 | 2.0 | 0.00 | 0.92 | 0.92 | 99 | 1011.4 |
| 20260503001109 | 56 | 83 | 3.0 | 5.0 | 0.00 | 0.92 | 0.92 | 99 | 1011.7 |
| 20260503000606 | 56 | 163 | 0.0 | 0.0 | 0.00 | 0.92 | 0.92 | 99 | 1011.6 |
| 20260503000103 | 56 | 172 | 0.0 | 0.0 | 0.00 | 0.92 | 0.92 | 99 | 1011.7 |
| 20260502235600 | 56 | 118 | 0.0 | 0.0 | 0.00 | 0.92 | 0.92 | 99 | 1011.6 |
| 20260502235058 | 56 | 165 | 0.0 | 1.0 | 0.00 | 0.92 | 0.92 | 99 | 1011.5 |
| 20260502234553 | 56 | 43 | 2.0 | 3.0 | 0.00 | 0.92 | 0.92 | 99 | 1011.4 |
| 20260502234052 | 56 | 44 | 0.0 | 2.0 | 0.00 | 0.92 | 0.92 | 99 | 1011.3 |
| 20260502233551 | 56 | 174 | 0.0 | 0.0 | 0.00 | 0.92 | 0.92 | 99 | 1011.3 |
| 20260502233049 | 56 | 127 | 1.0 | 1.0 | 0.00 | 0.92 | 0.92 | 99 | 1011.2 |
| 20260502232545 | 56 | 173 | 0.0 | 1.0 | 0.00 | 0.92 | 0.92 | 99 | 1010.9 |
| 20260502232042 | 56 | 175 | 0.0 | 0.0 | 0.00 | 0.92 | 0.92 | 99 | 1010.8 |
| 20260502231539 | 56 | 158 | 2.0 | 2.0 | 0.00 | 0.92 | 0.92 | 99 | 1010.7 |
| 20260502231037 | 56 | 96 | 1.0 | 2.0 | 0.00 | 0.92 | 0.92 | 99 | 1010.5 |
| 20260502230535 | 56 | 165 | 0.0 | 0.0 | 0.00 | 0.92 | 0.92 | 99 | 1010.8 |
| 20260502230033 | 56 | 176 | 0.0 | 1.0 | 0.00 | 0.92 | 0.92 | 99 | 1010.6 |
| 20260502225528 | 57 | 146 | 1.0 | 1.0 | 0.00 | 0.92 | 0.92 | 99 | 1010.6 |
| 20260502225026 | 57 | 81 | 5.0 | 6.0 | 0.00 | 0.92 | 0.92 | 99 | 1010.7 |
| 20260502224522 | 57 | 149 | 2.0 | 3.0 | 0.00 | 0.92 | 0.92 | 99 | 1010.6 |
| 20260502224019 | 57 | 161 | 1.0 | 1.0 | 0.00 | 0.92 | 0.92 | 99 | 1010.7 |
| 20260502223517 | 57 | 181 | 0.0 | 1.0 | 0.00 | 0.92 | 0.92 | 99 | 1010.8 |
| 20260502223015 | 57 | 81 | 1.0 | 2.0 | 0.00 | 0.92 | 0.92 | 99 | 1010.9 |
| 20260502222512 | 57 | 165 | 1.0 | 1.0 | 0.05 | 0.92 | 0.92 | 99 | 1010.8 |
| 20260502222008 | 57 | 108 | 1.0 | 2.0 | 0.05 | 0.92 | 0.92 | 99 | 1010.6 |
| 20260502221504 | 57 | 342 | 3.0 | 5.0 | 0.00 | 0.91 | 0.91 | 99 | 1010.5 |
| 20260502221002 | 57 | 173 | 1.0 | 1.0 | 0.00 | 0.91 | 0.91 | 99 | 1010.6 |
| 20260502220456 | 57 | 117 | 2.0 | 3.0 | 0.00 | 0.91 | 0.91 | 99 | 1010.5 |
| 20260502215954 | 57 | 171 | 0.0 | 1.0 | 0.00 | 0.91 | 0.91 | 99 | 1010.5 |
| 20260502215451 | 57 | 161 | 0.0 | 0.0 | 0.00 | 0.91 | 0.91 | 99 | 1010.2 |
| 20260502214948 | 57 | 97 | 0.0 | 1.0 | 0.00 | 0.91 | 0.91 | 99 | 1010.2 |
| 20260502214445 | 57 | 22 | 3.0 | 5.0 | 0.00 | 0.91 | 0.91 | 99 | 1010.1 |
| 20260502213942 | 57 | 88 | 1.0 | 2.0 | 0.00 | 0.91 | 0.91 | 99 | 1010.3 |
| 20260502213438 | 57 | 168 | 0.0 | 0.0 | 0.00 | 0.91 | 0.91 | 99 | 1010.0 |
| 20260502212937 | 57 | 103 | 4.0 | 5.0 | 0.00 | 0.91 | 0.91 | 99 | 1010.2 |
| 20260502212436 | 57 | 153 | 1.0 | 1.0 | 0.00 | 0.91 | 0.91 | 99 | 1009.7 |
| 20260502211932 | 57 | 128 | 1.0 | 1.0 | 0.00 | 0.91 | 0.91 | 99 | 1009.5 |
| 20260502211428 | 57 | 158 | 3.0 | 5.0 | 0.00 | 0.91 | 0.91 | 99 | 1009.6 |
| 20260502210926 | 57 | 123 | 1.0 | 1.0 | 0.00 | 0.91 | 0.91 | 99 | 1009.5 |
| 20260502210422 | 57 | 357 | 2.0 | 3.0 | 0.00 | 0.91 | 0.91 | 99 | 1009.4 |
| 20260502205920 | 57 | 183 | 0.0 | 0.0 | 0.00 | 0.91 | 0.91 | 99 | 1009.5 |
| 20260502205416 | 57 | 5 | 3.0 | 5.0 | 0.00 | 0.91 | 0.91 | 99 | 1009.3 |
| 20260502204913 | 58 | 161 | 0.0 | 0.0 | 0.00 | 0.91 | 0.91 | 99 | 1009.3 |
| 20260502204410 | 58 | 230 | 1.0 | 1.0 | 0.00 | 0.91 | 0.91 | 99 | 1009.4 |
| 20260502203908 | 58 | 102 | 3.0 | 7.0 | 0.00 | 0.91 | 0.91 | 99 | 1009.4 |
| 20260502203405 | 58 | 112 | 1.0 | 1.0 | 0.00 | 0.91 | 0.91 | 99 | 1009.1 |
| 20260502202900 | 58 | 171 | 0.0 | 0.0 | 0.00 | 0.91 | 0.91 | 99 | 1009.2 |
| 20260502202358 | 58 | 166 | 1.0 | 2.0 | 0.00 | 0.91 | 0.91 | 99 | 1008.9 |
| 20260502201856 | 58 | 0 | 2.0 | 2.0 | 0.05 | 0.91 | 0.91 | 99 | 1009.3 |
| 20260502201352 | 58 | 104 | 1.0 | 2.0 | 0.05 | 0.91 | 0.91 | 99 | 1009.1 |
| 20260502200848 | 58 | 93 | 2.0 | 2.0 | 0.00 | 0.90 | 0.90 | 99 | 1009.2 |
| 20260502200344 | 59 | 175 | 0.0 | 1.0 | 0.00 | 0.90 | 0.90 | 99 | 1009.1 |
| 20260502195842 | 59 | 348 | 2.0 | 3.0 | 0.00 | 0.90 | 0.90 | 99 | 1009.2 |
| 20260502195338 | 59 | 165 | 1.0 | 2.0 | 0.00 | 0.90 | 0.90 | 99 | 1009.5 |
| 20260502194835 | 59 | 199 | 1.0 | 2.0 | 0.05 | 0.90 | 0.90 | 99 | 1008.9 |
| 20260502194332 | 59 | 71 | 2.0 | 2.0 | 0.05 | 0.90 | 0.90 | 99 | 1008.9 |
| 20260502193828 | 59 | 50 | 4.0 | 5.0 | 0.05 | 0.89 | 0.89 | 99 | 1009.1 |
| 20260502193325 | 59 | 76 | 3.0 | 3.0 | 0.07 | 0.89 | 0.89 | 99 | 1009.2 |
| 20260502192821 | 60 | 42 | 2.0 | 2.0 | 0.02 | 0.89 | 0.89 | 99 | 1009.5 |
| 20260502192318 | 60 | 155 | 2.0 | 3.0 | 0.05 | 0.88 | 0.88 | 99 | 1009.2 |
| 20260502191815 | 60 | 173 | 0.0 | 0.0 | 0.14 | 0.88 | 0.88 | 99 | 1009.3 |
| 20260502191313 | 60 | 73 | 1.0 | 1.0 | 0.09 | 0.87 | 0.87 | 99 | 1009.3 |